This is the latest recevied weather packets stored in our database for station/object K7OWW-2. If no packets are shown the sender has not sent any weather packets the latest 10 day(s).
| Time | Temp. | Humidity | Pressure | Rain* | Wind** | Luminosity | Snow |
|---|---|---|---|---|---|---|---|
| 1787516951 | 24.44° C | 25% | 1016.7 hPa | 0 mm | - | - | - |
| 1787516351 | 25° C | 27% | 1016.8 hPa | 0 mm | - | - | - |
| 1787516053 | 24.44° C | 26% | 1016.8 hPa | 0 mm | - | - | - |
| 1787515751 | 24.44° C | 24% | 1016.8 hPa | 0 mm | - | - | - |
| 1787515151 | 24.44° C | 26% | 1016.9 hPa | 0 mm | - | - | - |
| 1787514551 | 24.44° C | 26% | 1017 hPa | 0 mm | - | - | - |
| 1787514253 | 24.44° C | 28% | 1017.1 hPa | 0 mm | - | - | - |
| 1787513951 | 24.44° C | 26% | 1017.1 hPa | 0 mm | - | - | - |
| 1787513351 | 23.89° C | 26% | 1017.2 hPa | 0 mm | - | - | - |
| 1787512751 | 23.33° C | 28% | 1017.3 hPa | 0 mm | - | - | - |
| 1787512453 | 23.33° C | 28% | 1017.3 hPa | 0 mm | - | - | - |
| 1787512151 | 23.33° C | 29% | 1017.4 hPa | 0 mm | - | - | - |
| 1787511551 | 22.78° C | 28% | 1017.6 hPa | 0 mm | - | - | - |
| 1787510951 | 22.22° C | 32% | 1017.6 hPa | 0 mm | - | - | - |
| 1787510351 | 21.67° C | 32% | 1017.7 hPa | 0 mm | - | - | - |
| 1787509751 | 21.67° C | 36% | 1017.9 hPa | 0 mm | - | - | - |
| 1787509151 | 21.11° C | 36% | 1018 hPa | 0 mm | - | - | - |
| 1787508854 | 21.11° C | 35% | 1017.9 hPa | 0 mm | - | - | - |
| 1787508551 | 21.11° C | 37% | 1017.9 hPa | 0 mm | - | - | - |
| 1787507951 | 20.56° C | 38% | 1017.9 hPa | 0 mm | - | - | - |
| 1787507351 | 20.56° C | 40% | 1018 hPa | 0 mm | - | - | - |
| 1787507054 | 20° C | 41% | 1018 hPa | 0 mm | - | - | - |
| 1787506751 | 20.56° C | 42% | 1018.1 hPa | 0 mm | - | - | - |
| 1787506151 | 19.44° C | 44% | 1018.1 hPa | 0 mm | - | - | - |
| 1787505551 | 18.33° C | 47% | 1018.2 hPa | 0 mm | - | - | - |
* Rain latest hour (hover to see other rain measurements)
** Current wind speed in m/s (hover to see current wind gust speed)